ONEWEB-0643, 55807

Orbit data source: Space-Track

ONEWEB-0643, 55807 is a payload satellite owned by One Web (NAA) (UK) in LEO that was launched on Thu, 09 Mar 2023 UTC via an FALCON 9 launch vehicle from the Air Force Eastern Test Range (AFETR). Payload-class satellites include a variety of spacecraft equipped with specific instruments for various scientific and technological missions. These include communications satellites like Starlink; space stations such as the ISS; scientific satellites like the Hubble; Earth observation satellites from companies like Planet Labs, Umbra, and HawkEye 360; GPS; miniature CubeSats for education and research; and military/defense satellites.

Loading next visibility...
Identifier
55807, 2023-029M
Orbit
LEO
Country
Flag of UKUK
Related business
Manufacturer
One Web
Mission
Operational Commercial Communications
Bus & Motor
ARROW, Unknown motor
Mass
148 kg wet, ~140 kg dry
Launch date (UTC)
2023-03-09 (3 years ago)
Launch vehicle
FALCON 9
Launch site
Air Force Eastern Test Range (AFETR)
Object type
Payload
Rocket body
Debris
Shape & HBR
Trap Box + 2 Pan, 6.7 m
Radar Cross Section
3.464 m², Large (>1 m²)

Expand to show TLE details & history
Last TLE update: 2 days ago

TLE from 2 days ago
0 ONEWEB-0643
1 55807U 23029M   26171.34105209  .00000003  00000-0 -26802-4 0  9998
2 55807  87.8960 289.1008 0002021 120.6821 239.4508 13.14503565159805
Epoch: 2026-06-20T08:11Z
TLE epoch observation values (Epoch: 2026-06-20T08:11:06.900Z)
Latitude
-0.00003°
Longitude
-102.23502°
Altitude
1,209.461 km
Speed
7.249 km/s
True Right ascension
19h 16m 24s
True Declination
0° 00' 00"
Sunlit
Object was in full shadow at epoch
Visualization orbit readout
Latitude
Unknown
Longitude
Unknown
Altitude
Unknown
Speed
Unknown
Apparent Right ascension
Unknown
Apparent Declination
Unknown
Sunlit
N/A
Visualization observer readout
Local Sidereal Time
21:41:10
Azimuth
Unknown
Elevation
Unknown
Doppler factor
Unknown
Orbital elements
Apogee altitude
1,204.433 km
Perigee altitude
1,201.369 km
Semi-major axis
7,581.038 km
Eccentricity
0.0002
Inclination
87.896°
RAAN
289.1008°
Arg. of periapsis
120.6821°
True anomaly
239.43086°
Mean anomaly
239.4508°
Eccentric anomaly
239.44083°
Mean motion
3.28814 °/min
Orbital period
109.48 mins
BSTAR
-0.000026802
Loading maneuver chart data...
Computing Atmospheric mass density...
Loading historical data...
Loading historical data...
Loading historical data...
Loading historical data...
Loading historical data...
Loading historical data...
Loading historical data...

Documentation

Showing up to 5 results
|